Temperature
17 19 19 19 19 19 19 18 19 19 19 17 18 19 20 20 18 17 17 17 16 16 15 15 15 15 15 14 14 13 13 12 12 11 11 10 10 10 10 10 9 9 9 9
18 18 19 18 17 17 18 18 19 19 17 17 18 19 20 20 18 17 17 17 16 15 14 14 15 15 15 14 14 13 13 12 12 11 11 10 10 10 10 10 9 9 9 9
18 18 17 17 17 17 17 18 18 18 18 17 17 20 21 20 17 16 16 16 16 15 14 14 14 15 14 14 14 14 13 12 12 11 11 10 10 10 10 9 9 9 9 9
18 17 16 16 17 17 18 18 17 16 17 19 17 19 21 20 19 18 17 16 15 14 14 14 14 14 14 14 14 13 13 12 12 11 11 10 10 10 10 9 9 9 9 9
17 16 16 17 18 17 18 16 16 16 17 17 17 17 21 20 20 20 19 17 15 14 13 13 14 14 14 14 14 13 13 12 12 11 11 10 10 10 10 9 9 9 9 8
17 16 16 17 16 16 15 15 15 15 17 17 18 17 20 21 20 20 19 17 15 13 13 13 13 13 13 13 13 13 12 12 12 11 10 10 10 10 10 9 9 9 8 8
16 16 15 15 15 15 16 17 17 17 17 18 16 16 19 21 19 18 17 16 15 13 13 13 13 13 13 13 13 13 12 12 11 11 10 10 10 10 9 9 9 8 8 8
16 16 16 15 17 17 16 17 18 17 18 18 16 16 20 20 17 16 15 15 14 13 13 13 13 13 13 13 13 13 12 12 11 11 10 10 10 9 9 9 9 8 8 8
17 17 15 15 15 17 16 17 17 17 16 16 18 18 19 19 19 17 17 15 15 14 14 14 13 13 13 13 13 13 12 12 11 11 10 10 10 9 9 9 8 8 8 7
18 17 15 14 14 14 16 17 16 16 16 17 18 18 19 20 20 19 18 17 15 14 14 14 14 13 13 13 13 12 12 11 11 11 10 10 10 9 9 8 8 8 7 7
17 17 14 14 15 16 14 15 16 17 17 17 17 19 19 20 19 19 18 17 15 14 14 14 14 13 13 12 12 12 12 11 11 10 10 10 9 9 8 8 8 7 7 6
16 17 16 16 15 15 16 17 17 16 16 16 17 18 20 18 18 17 17 16 15 14 14 14 14 13 13 13 12 12 12 11 11 10 10 9 9 8 8 8 7 7 6 6
15 16 15 15 14 13 14 15 16 16 16 16 16 18 19 17 17 16 16 16 15 14 14 14 13 13 13 13 12 12 11 11 10 10 9 9 8 8 8 7 7 6 6 5
15 16 16 17 17 15 14 14 14 15 16 16 16 18 19 19 19 18 17 16 15 14 14 13 13 13 13 12 12 11 11 10 10 9 9 9 8 8 7 7 6 6 5 5
15 15 16 16 15 15 15 15 14 14 16 16 17 18 18 19 19 18 17 15 14 13 13 13 13 12 12 12 12 11 11 10 9 9 9 8 8 7 7 6 6 5 5 4
14 15 15 14 14 14 14 14 14 14 15 16 16 17 18 18 17 16 15 14 13 13 13 13 13 12 12 12 11 11 11 10 9 9 8 8 7 7 6 6 5 5 4 4
14 14 14 15 13 13 14 15 15 14 14 15 16 17 18 17 16 15 14 13 13 13 13 13 13 12 12 11 11 11 10 9 9 8 8 7 7 6 5 5 4 4 3 3
14 14 14 14 13 12 17 16 15 15 15 15 15 16 16 15 14 13 13 12 13 13 13 12 12 12 11 11 11 10 10 9 8 7 7 7 6 5 5 4 4 3 3 2
13 14 13 13 14 15 15 14 13 14 15 16 15 15 15 12 11 13 13 13 13 13 12 12 12 11 11 10 10 9 9 8 8 7 6 6 5 5 4 4 3 3 2 1
10 13 13 12 12 13 16 15 13 14 15 16 14 14 13 11 14 15 13 13 13 12 12 11 11 10 10 10 9 9 8 8 7 6 6 5 4 4 3 3 2 2 1 1
10 11 12 13 13 15 16 12 12 14 16 15 13 13 12 12 14 13 13 12 12 12 11 11 10 10 9 9 8 8 7 7 6 5 5 4 4 3 3 2 2 1 0 -0
12 12 12 13 12 13 13 11 13 16 15 14 13 13 12 12 12 12 12 11 11 11 10 10 9 9 8 8 7 7 6 6 5 4 4 3 3 2 2 1 1 0 -0 -1
13 14 14 14 15 15 12 13 14 14 13 14 14 14 13 12 12 11 11 10 10 10 9 9 8 8 7 7 6 6 5 5 4 4 3 3 2 1 1 0 -0 -1 -1 -2
11 10 12 12 13 13 12 12 13 13 13 13 13 13 13 12 12 11 10 10 9 9 8 8 7 7 6 6 5 5 4 4 3 3 2 2 1 1 0 -0 -1 -1 -2 -3
13 10 11 12 13 12 12 12 13 13 13 13 13 12 12 12 11 10 10 9 8 8 7 7 6 6 5 5 4 4 3 3 2 2 1 1 0 -0 -1 -1 -2 -2 -3 -3
10 11 12 14 14 14 14 14 13 13 13 12 12 11 11 11 10 10 9 8 7 7 6 6 5 5 4 4 3 3 2 2 1 1 0 -0 -1 -1 -2 -2 -3 -3 -4 -4
Wind_Speed
5 8 10 9 9 7 6 8 11 10 6 6 14 20 21 16 14 16 15 14 14 13 11 9 9 9 10 11 12 13 13 13 11 9 9 8 7 6 5 5 5 5 4 4
7 13 11 6 6 7 8 10 12 9 3 6 15 22 21 14 13 14 15 15 15 13 12 11 11 11 11 12 13 13 14 14 13 10 9 6 6 5 4 5 5 5 5 4
15 5 6 8 8 9 10 12 11 10 9 6 10 13 9 5 7 9 11 12 13 13 14 14 14 13 12 13 13 12 14 13 13 11 8 6 5 4 4 5 4 5 5 4
12 8 7 9 10 10 10 7 9 8 9 7 5 9 11 6 7 6 7 8 10 12 13 13 14 14 14 13 11 12 13 13 13 12 11 12 9 7 7 6 5 5 5 5
9 8 10 12 11 11 6 1 4 6 8 10 7 8 9 4 5 4 3 4 7 10 12 14 15 14 13 12 11 11 12 12 13 12 12 12 10 7 6 6 6 6 5 5
6 5 7 7 3 6 6 4 2 3 5 8 6 7 8 3 4 7 6 5 4 7 11 12 13 12 12 11 11 11 13 13 12 13 12 12 11 9 8 8 7 6 4 4
9 7 5 5 6 6 7 6 5 5 5 5 2 7 10 7 6 9 10 8 6 6 9 12 14 14 14 14 13 13 14 13 13 13 12 12 11 11 10 9 8 7 5 5
12 10 11 9 10 8 10 9 7 5 5 4 4 8 7 6 7 8 8 8 6 5 8 12 14 14 15 15 15 15 15 14 13 13 12 11 11 8 7 8 7 7 6 5
12 8 5 6 4 8 8 9 7 6 5 7 7 7 9 5 4 3 3 3 3 4 7 10 13 14 15 16 16 16 15 14 14 13 12 11 11 9 8 8 7 6 6 4
9 7 5 5 4 2 5 6 6 7 6 7 8 8 6 5 3 2 2 3 3 2 4 8 11 13 14 14 14 15 15 15 14 13 12 9 10 10 9 8 8 7 6 6
11 9 5 7 11 12 9 8 8 7 6 6 7 7 4 7 5 5 5 4 4 3 4 6 8 11 12 13 13 14 14 14 13 13 12 11 10 9 9 8 8 7 7 7
13 9 8 8 3 4 12 13 13 9 9 7 8 9 3 7 7 7 8 7 6 5 5 5 7 9 11 13 14 14 14 14 13 12 12 11 10 9 9 9 8 7 7 7
13 10 8 5 5 6 9 11 14 11 8 10 11 11 2 5 8 9 10 10 8 6 6 6 7 9 11 12 13 14 14 14 13 12 12 11 10 10 10 9 8 8 7 8
12 10 13 11 5 8 10 12 14 15 12 14 17 20 16 15 15 14 13 12 10 8 7 6 7 8 9 10 12 12 13 12 12 12 12 12 11 10 10 9 8 7 8 8
10 11 13 12 5 7 10 13 17 20 20 17 19 21 23 20 17 16 14 11 10 9 7 7 7 7 8 9 10 11 11 11 11 12 12 11 10 9 8 8 7 7 8 8
10 9 9 9 8 9 10 14 17 20 20 23 24 25 22 18 15 14 13 11 10 9 7 6 6 7 8 9 9 10 10 10 11 11 11 10 9 8 8 8 7 7 8 9
12 9 9 9 5 5 13 17 19 15 16 16 21 22 17 14 13 12 11 10 10 9 7 6 6 6 6 7 8 9 9 9 9 10 9 9 8 8 7 7 7 8 9 9
13 11 6 5 6 11 10 5 12 17 19 19 19 19 17 15 12 11 11 11 10 7 6 5 4 4 4 5 6 7 7 8 8 8 8 8 8 7 7 7 8 8 8 9
10 11 7 6 11 13 9 6 9 12 15 17 20 20 16 8 7 8 7 7 7 6 4 4 3 3 4 4 5 6 7 7 7 8 8 7 7 7 7 7 8 8 9 10
6 9 8 7 8 10 9 5 7 5 10 10 13 14 10 6 6 6 4 4 4 3 2 2 3 4 4 4 6 6 6 6 7 6 6 6 6 7 7 8 8 8 9 10
9 9 13 13 12 12 5 6 10 8 8 2 8 10 10 10 8 1 4 3 3 3 3 4 4 4 4 4 5 5 5 5 4 4 4 5 6 7 7 8 8 9 9 11
14 12 13 11 12 12 8 11 12 9 1 4 6 7 9 9 5 3 3 4 4 4 4 5 4 4 4 4 5 4 4 3 3 3 4 5 6 6 6 8 8 9 10 11
13 13 9 12 12 4 12 12 9 4 5 6 6 6 8 7 7 6 5 5 5 5 5 4 4 4 3 3 3 3 2 2 2 3 5 5 6 6 7 8 9 9 10 10
9 6 8 10 12 9 10 12 10 9 9 8 6 6 7 8 8 7 6 6 5 5 5 4 5 4 3 2 2 2 2 2 3 4 5 6 6 7 8 8 8 9 9 10
10 11 10 13 11 8 11 14 14 11 10 8 7 7 8 8 8 8 6 6 6 5 5 4 4 3 3 2 2 2 2 3 4 5 6 7 7 8 9 9 9 11 11 12
9 11 12 13 11 10 9 7 8 9 9 9 8 6 6 8 8 7 6 5 5 6 5 4 4 3 2 2 2 3 3 4 5 6 6 6 7 7 8 10 11 12 15 19
Wind_Direction
180 216 228 230 230 251 259 266 276 284 292 276 277 281 283 278 257 252 248 239 228 223 210 193 189 185 181 182 183 181 179 178 175 175 178 178 180 174 176 178 179 184 193 200
200 231 236 221 204 218 240 262 276 287 272 277 290 286 283 277 259 254 251 242 230 219 202 194 189 185 184 181 181 181 182 181 182 183 182 183 174 175 172 166 172 183 193 201
221 226 189 190 201 222 240 254 272 285 301 265 298 290 279 275 265 258 251 244 233 220 208 196 191 188 186 184 183 182 183 183 184 178 167 152 147 154 173 179 180 187 195 199
230 214 182 206 221 226 252 246 254 269 288 294 316 301 297 299 290 268 253 237 232 220 212 201 194 191 190 186 181 183 182 182 181 178 181 182 189 193 195 188 184 184 194 198
216 198 202 221 230 216 244 178 222 255 271 281 258 266 286 298 294 313 300 261 239 222 212 204 199 194 190 183 180 182 181 183 183 186 189 192 196 194 181 179 182 186 189 198
223 198 217 222 207 201 159 149 163 215 250 261 249 249 281 282 299 314 315 305 264 226 213 207 198 193 188 183 181 182 182 184 184 188 191 197 195 187 181 186 188 193 194 200
216 214 200 179 160 162 187 221 250 242 232 248 190 245 261 284 291 294 300 301 292 237 212 203 196 193 190 187 185 185 186 187 187 191 195 199 198 195 195 194 197 199 202 208
207 216 197 195 206 194 198 218 235 262 265 275 219 246 265 297 293 286 284 286 281 241 215 208 202 199 196 192 190 189 191 191 190 193 197 199 196 197 200 200 201 205 211 215
206 210 162 190 201 193 187 214 239 259 271 272 256 260 284 270 273 282 294 297 284 249 219 212 206 203 200 196 195 194 193 194 193 195 195 196 196 197 198 198 203 209 213 214
203 204 169 158 151 198 225 178 177 215 248 259 259 257 256 253 277 317 323 326 319 271 227 214 209 206 204 201 198 197 198 198 196 196 196 196 197 198 198 199 203 209 214 216
199 202 169 180 203 197 176 190 208 217 241 256 269 259 234 251 273 287 295 300 298 276 243 220 213 208 204 201 198 198 200 199 197 197 197 197 198 198 200 204 208 211 217 222
196 209 213 207 182 243 214 211 204 220 230 236 264 271 241 252 268 271 280 288 288 274 256 235 217 206 203 203 201 201 200 201 200 198 199 200 198 197 203 209 211 214 222 229
175 196 203 199 203 193 214 217 218 230 247 240 248 264 210 252 265 265 272 285 289 279 264 242 221 210 207 205 204 203 203 202 199 197 199 200 200 202 208 212 214 219 227 235
180 201 216 226 224 184 202 208 209 215 234 245 246 262 269 272 276 280 283 285 286 279 265 247 229 218 212 208 205 204 204 201 198 197 200 203 205 207 211 214 217 223 231 240
194 216 224 241 233 193 212 212 208 218 232 248 260 264 270 276 283 286 287 286 282 273 261 245 233 224 214 208 205 204 202 198 196 198 203 207 207 208 210 215 222 229 237 244
199 215 211 229 227 224 237 234 225 229 238 247 259 267 271 279 280 277 277 276 272 270 261 250 238 228 217 210 205 202 201 197 195 202 207 206 205 207 213 220 227 236 243 249
188 193 201 231 204 216 246 234 226 226 227 236 249 260 272 274 271 272 273 268 263 264 259 247 236 227 218 210 203 200 197 192 197 205 207 204 206 210 217 224 234 242 250 256
186 194 207 213 191 236 253 217 224 232 241 237 247 260 266 270 276 273 264 259 258 257 252 242 231 220 212 201 194 189 184 188 196 205 207 207 208 215 222 231 242 251 257 261
199 191 195 204 236 255 258 223 202 216 250 243 244 255 263 267 274 260 239 235 244 253 246 238 221 204 188 180 174 171 178 186 197 207 211 211 214 222 230 241 251 259 264 267
184 201 202 205 226 244 250 189 172 192 260 247 231 242 241 203 242 257 190 197 214 216 205 185 168 161 160 158 162 171 181 192 206 213 217 220 225 233 242 251 260 266 267 271
177 194 210 219 235 254 242 147 155 210 260 196 207 220 207 208 237 215 148 173 183 179 167 157 152 151 150 153 163 177 189 208 215 217 224 232 238 245 253 260 264 269 273 275
187 193 206 213 229 243 175 158 194 232 229 196 213 216 214 219 226 209 201 192 178 169 161 156 150 144 143 156 169 185 206 214 211 221 235 246 253 258 258 264 270 273 275 278
207 207 205 208 227 249 173 198 216 230 222 221 221 220 211 215 222 217 209 199 188 176 165 159 154 148 150 166 183 202 210 204 218 237 251 260 265 266 265 268 273 276 276 277
214 211 214 231 245 240 224 231 239 234 237 239 233 223 208 217 216 210 203 195 184 174 168 162 162 168 172 177 196 210 211 218 236 254 265 269 271 274 273 271 269 271 274 277
210 186 211 235 248 255 246 235 237 237 238 238 234 227 220 213 211 205 197 191 182 171 165 168 176 182 187 191 213 226 230 235 252 264 270 273 273 274 277 275 271 271 271 272
199 194 207 235 234 227 238 227 225 223 226 221 213 215 211 204 201 193 188 180 170 166 163 169 178 185 194 213 240 252 249 250 258 268 274 276 277 278 278 282 283 268 267 276
Height
1542 1542 1539 1539 1541 1541 1542 1543 1542 1539 1538 1540 1532 1525 1518 1518 1519 1519 1518 1519 1520 1521 1523 1524 1526 1528 1530 1532 1534 1536 1538 1541 1543 1546 1548 1550 1551 1552 1553 1554 1554 1554 1553 1553
1540 1538 1536 1540 1543 1544 1543 1543 1539 1536 1539 1538 1529 1521 1512 1511 1512 1512 1512 1512 1514 1516 1518 1519 1522 1524 1526 1528 1531 1533 1535 1538 1540 1543 1545 1547 1549 1550 1550 1551 1551 1551 1551 1550
1533 1534 1537 1540 1542 1543 1541 1540 1537 1538 1536 1535 1533 1514 1505 1505 1508 1508 1508 1508 1509 1511 1513 1515 1517 1520 1522 1525 1527 1530 1532 1535 1537 1540 1542 1544 1545 1546 1547 1547 1548 1548 1547 1547
1532 1533 1537 1538 1537 1538 1538 1537 1539 1540 1538 1530 1534 1524 1502 1502 1503 1503 1503 1504 1504 1506 1508 1511 1513 1515 1518 1521 1524 1527 1529 1531 1534 1536 1538 1540 1541 1543 1543 1544 1544 1544 1544 1543
1527 1531 1533 1534 1532 1535 1534 1538 1540 1539 1537 1534 1530 1530 1505 1501 1499 1497 1499 1500 1501 1502 1504 1506 1508 1511 1514 1517 1520 1523 1525 1528 1530 1532 1534 1537 1538 1539 1540 1540 1540 1541 1540 1540
1526 1530 1530 1529 1532 1535 1538 1539 1540 1540 1536 1534 1526 1527 1508 1495 1497 1496 1496 1498 1498 1499 1500 1502 1504 1507 1510 1513 1516 1519 1521 1524 1526 1528 1530 1533 1534 1535 1536 1536 1537 1537 1536 1536
1526 1527 1528 1530 1531 1536 1535 1535 1535 1532 1530 1524 1527 1527 1507 1494 1497 1497 1497 1496 1496 1496 1496 1498 1500 1502 1505 1508 1512 1515 1517 1519 1522 1524 1526 1528 1530 1531 1532 1532 1533 1533 1532 1532
1521 1521 1523 1525 1524 1526 1529 1528 1531 1532 1526 1519 1526 1520 1498 1495 1497 1496 1496 1494 1493 1493 1493 1494 1496 1499 1501 1504 1507 1510 1513 1515 1518 1520 1522 1524 1525 1526 1527 1528 1528 1528 1528 1527
1511 1515 1520 1522 1523 1523 1527 1526 1524 1526 1528 1529 1514 1507 1497 1493 1493 1493 1493 1493 1492 1491 1491 1491 1493 1495 1497 1500 1503 1506 1508 1511 1513 1515 1517 1519 1520 1522 1523 1524 1524 1524 1523 1522
1505 1512 1518 1522 1524 1525 1523 1522 1528 1528 1528 1523 1511 1507 1497 1489 1488 1489 1490 1490 1490 1489 1489 1489 1490 1491 1493 1496 1499 1501 1504 1506 1509 1511 1512 1514 1516 1517 1518 1519 1519 1519 1518 1517
1503 1508 1518 1520 1518 1516 1523 1525 1520 1519 1519 1518 1513 1501 1488 1487 1487 1488 1488 1488 1488 1487 1487 1487 1487 1488 1490 1491 1494 1496 1499 1501 1503 1505 1507 1509 1510 1512 1513 1513 1514 1513 1513 1512
1501 1503 1508 1511 1513 1514 1512 1511 1513 1517 1515 1516 1510 1498 1485 1487 1487 1488 1487 1486 1485 1485 1484 1484 1484 1484 1485 1486 1488 1491 1493 1495 1498 1500 1502 1504 1505 1506 1507 1508 1508 1508 1507 1506
1499 1502 1507 1510 1515 1516 1513 1510 1510 1509 1510 1509 1509 1495 1484 1486 1486 1485 1485 1483 1483 1482 1481 1480 1480 1480 1480 1481 1483 1485 1487 1490 1492 1495 1497 1498 1499 1501 1502 1502 1502 1502 1501 1500
1494 1494 1495 1494 1492 1498 1505 1507 1508 1508 1506 1501 1497 1488 1480 1480 1480 1481 1481 1480 1479 1478 1477 1476 1475 1475 1476 1477 1478 1480 1482 1484 1487 1489 1491 1492 1494 1495 1496 1497 1496 1496 1495 1494
1491 1490 1489 1489 1493 1496 1496 1498 1502 1501 1495 1493 1484 1481 1475 1474 1476 1476 1476 1476 1475 1474 1472 1471 1471 1471 1472 1472 1473 1475 1477 1479 1481 1483 1485 1486 1488 1489 1490 1490 1490 1490 1489 1487
1488 1488 1490 1492 1493 1495 1495 1492 1493 1493 1490 1486 1482 1476 1470 1471 1473 1472 1472 1471 1470 1469 1468 1467 1467 1467 1467 1468 1469 1470 1472 1474 1475 1477 1479 1481 1482 1483 1484 1484 1484 1483 1482 1480
1483 1486 1489 1487 1492 1495 1490 1481 1482 1483 1480 1478 1476 1468 1466 1467 1468 1468 1467 1467 1466 1465 1464 1463 1463 1463 1464 1464 1465 1466 1468 1469 1471 1472 1474 1475 1476 1477 1478 1478 1477 1476 1475 1473
1478 1481 1484 1486 1493 1496 1469 1469 1470 1472 1469 1470 1467 1463 1463 1464 1464 1463 1462 1462 1461 1461 1460 1460 1460 1460 1461 1461 1462 1463 1464 1465 1466 1467 1468 1469 1470 1471 1472 1471 1471 1470 1468 1466
1475 1478 1482 1486 1480 1472 1467 1467 1468 1469 1464 1460 1460 1458 1459 1461 1461 1458 1457 1457 1457 1457 1457 1457 1457 1457 1458 1458 1459 1459 1460 1461 1462 1462 1463 1464 1465 1465 1465 1465 1464 1463 1461 1458
1477 1475 1477 1480 1480 1474 1457 1459 1462 1466 1461 1452 1453 1453 1455 1458 1457 1453 1453 1453 1454 1454 1454 1454 1454 1454 1455 1455 1456 1456 1457 1457 1458 1458 1459 1459 1460 1460 1459 1459 1457 1456 1453 1450
1473 1474 1472 1471 1470 1457 1452 1458 1462 1464 1451 1448 1448 1449 1450 1452 1450 1450 1450 1450 1451 1451 1451 1451 1451 1452 1452 1453 1453 1453 1454 1454 1455 1455 1455 1455 1455 1454 1453 1452 1451 1448 1446 1442
1455 1461 1463 1463 1465 1458 1450 1455 1453 1445 1444 1444 1444 1445 1446 1446 1446 1447 1447 1447 1448 1448 1448 1448 1449 1449 1450 1450 1451 1451 1451 1451 1451 1451 1450 1450 1449 1448 1447 1445 1443 1441 1438 1434
1444 1442 1443 1446 1442 1439 1441 1441 1441 1441 1441 1441 1441 1441 1442 1442 1442 1443 1443 1444 1444 1445 1445 1446 1446 1447 1447 1448 1448 1448 1448 1448 1447 1446 1446 1445 1444 1442 1441 1439 1436 1433 1430 1426
1439 1441 1441 1440 1436 1436 1437 1436 1436 1437 1437 1437 1438 1438 1438 1438 1438 1439 1440 1440 1441 1441 1442 1443 1444 1444 1445 1445 1445 1445 1445 1444 1443 1442 1441 1439 1438 1436 1434 1431 1429 1426 1422 1418
1427 1435 1435 1432 1431 1432 1430 1430 1430 1431 1431 1432 1433 1433 1434 1434 1434 1435 1436 1437 1437 1438 1439 1440 1441 1441 1442 1442 1442 1441 1441 1440 1438 1437 1435 1433 1431 1429 1426 1424 1421 1417 1414 1411
1423 1424 1425 1421 1422 1424 1423 1424 1425 1425 1426 1427 1428 1428 1429 1430 1430 1431 1432 1433 1434 1435 1436 1437 1438 1438 1438 1438 1438 1437 1436 1435 1433 1431 1429 1427 1425 1422 1419 1415 1411 1407 1405 1401